Regional Weather Roundup
Issued by NWS Glasgow, MT

Home | Current Version | Previous Version | Text Only | Print | Product List | Glossary On
Versions: 1 2 3 4 5 6 7 8 9 10 11 12 13 14 15 16 17 18 19 20 21 22 23 24 25 26 27 28 29 30 31 32 33 34 35 36 37 38 39 40 41 42 43 44 45 46 47 48 49 50
000
ASUS45 KGGW 142315
RWRGGW
HOURLY REGIONAL WEATHER ROUNDUP FOR NORTHEAST MONTANA
NATIONAL WEATHER SERVICE GLASGOW MONTANA
400 PM MST SUN FEB 14 2016

NOTE: "FAIR" INDICATES FEW OR NO CLOUDS BELOW 12,000 FEET WITH NO
SIGNIFICANT WEATHER AND/OR OBSTRUCTIONS TO VISISBILITY.

NORTHEAST MONTANA


CITY           SKY/WX    TMP DP  RH WIND       PRES   REMARKS
GLASGOW        SUNNY     45  30  55 NW12      29.74R
PLENTYWOOD       N/A     39  30  70 NW7         N/A
WOLF POINT     PTSUNNY   45  32  60 W7        29.72R
JORDAN           N/A     48  29  47 NW15      29.76R
WINNETT          N/A     49  21  33 CALM        N/A
SIDNEY         CLOUDY    43  30  61 W5        29.72R
GLENDIVE       SUNNY     45  28  53 W16       29.75S
MALTA            N/A     50  22  33 NW18G26     N/A

FORT PECK REPORTS


CITY           SKY/WX    TMP DP  RH WIND       PRES   REMARKS
FORT PECK        N/A     46  29  51 W18         N/A
THE PINES        N/A     51  27  39 W12G23      N/A

SOUTHEAST MONTANA


CITY           SKY/WX    TMP DP  RH WIND       PRES   REMARKS
BILLINGS       MOSUNNY   52  16  24 NW31G39   29.84R
MILES CITY     MOSUNNY   47  26  44 NW23      29.78R
BAKER          SUNNY     39  37  92 W7        29.76
LIVINGSTON     CLOUDY    48  19  31 W21G29    29.93R

CENTRAL MONTANA


CITY           SKY/WX    TMP DP  RH WIND       PRES   REMARKS
HAVRE          MOSUNNY   50  19  29 NW14G23   29.79R
LEWISTOWN      SUNNY     46  19  34 NW22G31   29.83R
GREAT FALLS    CLOUDY    50  15  24 W24G32    29.87R
CUT BANK       PTSUNNY   45  18  34 W31G38    29.82S
HELENA         MOSUNNY   48  23  37 NW26G33   29.94S
BUTTE          PTSUNNY   40  24  53 NW16G25   30.00R
BOZEMAN        SUNNY     39  26  59 VRB5      29.97S

WESTERN MONTANA


CITY           SKY/WX    TMP DP  RH WIND       PRES   REMARKS
MISSOULA       CLOUDY    44  32  62 CALM      30.06F
KALISPELL      NOT AVBL

NORTH DAKOTA


CITY           SKY/WX    TMP DP  RH WIND       PRES   REMARKS
WILLISTON      SUNNY     39  30  70 W7        29.70R
DICKINSON      MOSUNNY   39  32  76 NW13      29.70R
MINOT          CLEAR     37  25  61 W9        29.68S
BISMARCK       CLEAR     43  29  57 NW10      29.72S

SOUTHERN SASKATCHEWAN


CITY           SKY/WX    TMP DP  RH WIND       PRES   REMARKS
REGINA         PTCLDY    39  30  70 W12       29.66R
MOOSE JAW      MOSUNNY   37  30  75 NW6       29.69R
ESTEVAN        CLOUDY    32  27  80 W7        29.67R
SWIFT CURRENT  MOSUNNY   36  30  80 W13       29.69R




USA.gov is the U.S. government's official web portal to all federal, state and local government web resources and services.